#timestamp,LO_Frequency,Hit,StdDev 
1590080415.6,286047004.2,Y
1590080435.4,286046996.6,P
1590080455.3,286046999.2,N
1590080475.1,286046998.6,N
1590080476.0,286046998.6,N
1590080495.8,286047000.8,N
1590080515.7,286046999.8,N
1590080535.5,286046998.7,N
1590080555.3,286046999.6,N
1590080575.2,286046999.4,N
1590080595.0,286046996.5,N
1590080595.9,286046996.5,N
1590080615.8,286046997.2,N
1590080635.6,286046997.5,N
1590080655.4,286046997.0,N
1590080675.3,286046995.7,N
1590080695.1,286046997.7,N
1590080715.9,286046997.0,N
1590080735.7,286046994.1,N
1590080755.5,286046993.8,N
1590080775.4,286046995.3,N
1590080795.2,286046997.4,N
1590080815.1,286046995.5,N
1590080816.0,286046995.5,N
1590080835.8,286046997.4,N
1590080855.6,286046997.4,N
1590080875.5,286046997.1,N
1590080895.3,286046996.2,N
1590080915.2,286046997.2,N
1590080935.9,286046995.2,N
1590080955.7,286046995.5,N
1590080975.6,286046995.7,N
1590080995.4,286046994.5,Y
1590081015.2,286047001.2,P
1590081035.1,286047001.0,N
1590081036.0,286047001.0,N
1590081055.8,286047001.0,N
1590081075.7,286047002.7,N
1590081095.5,286046999.4,N
1590081115.3,286046996.7,N
1590081135.2,286047001.2,N
1590081155.0,286047000.5,N
1590081155.9,286047000.5,N
1590081175.8,286047000.4,N
1590081195.6,286046998.6,N
1590081215.4,286046997.4,N
1590081235.3,286046999.1,N
1590081255.1,286046997.0,N
1590081275.9,286046998.3,N
1590081295.7,286046998.1,N
1590081315.5,286047000.2,N
1590081335.4,286047000.5,N
1590081355.2,286046996.5,N
1590081375.0,286046997.6,N
1590081375.9,286046997.6,N
1590081395.8,286046999.3,N
1590081415.6,286046998.9,N
1590081435.5,286046996.5,N
1590081455.3,286046996.7,N
1590081475.1,286046997.2,N
1590081495.9,286046998.2,N
1590081515.7,286046998.1,N
1590081535.5,286046999.1,N
1590081555.4,286046996.7,N
1590081575.2,286046996.7,N
1590081595.1,286046999.1,N
1590081596.0,286046999.1,N
1590081615.8,286046998.3,N
1590081635.6,286046999.6,N
1590081655.5,286046999.4,N
1590081675.3,286046998.6,N
1590081695.2,286047001.2,N
1590081715.9,286046998.3,N
1590081735.7,286046998.7,N
1590081755.6,286046997.6,N
1590081775.4,286046998.4,N
1590081795.3,286046997.3,N
1590081815.1,286046996.3,Y
1590081816.0,286046996.3,P
1590081835.8,286046999.4,N
1590081855.7,286046997.2,N
1590081875.5,286046996.3,Y
1590081895.4,286047000.5,P
1590081915.2,286047003.7,N
1590081935.0,286047001.8,N
1590081935.9,286047001.8,N
1590081955.8,286046997.0,N
1590081975.6,286046999.9,N
1590081995.5,286047002.2,N
1590082015.3,286047002.0,N
1590082035.1,286047003.9,N
1590082055.9,286047002.3,N
1590082075.7,286047002.6,N
1590082095.5,286047001.7,N
1590082115.4,286047001.5,N
1590082135.2,286047002.6,N
1590082155.1,286047003.9,N
1590082156.0,286047003.9,N
1590082175.8,286047005.1,N
1590082195.6,286047003.1,N
1590082215.5,286047003.9,N
1590082235.3,286047005.7,N
1590082255.2,286047006.8,Y
1590082275.9,286047003.0,P
1590082295.7,286047001.3,P
1590082315.6,286047003.9,P
1590082335.4,286047002.6,N
1590082355.3,286047002.3,N
1590082375.1,286046998.2,N
1590082376.0,286046998.2,N
1590082395.8,286047000.4,N
1590082415.7,286047001.0,N
1590082435.5,286047000.7,N
1590082455.4,286046999.9,N
1590082475.2,286047002.7,N
1590082495.0,286047004.4,N
1590082495.9,286047004.4,N
1590082515.8,286047005.4,N
1590082535.6,286047004.1,N
1590082555.5,286047001.5,N
1590082575.3,286047000.6,N
1590082595.1,286047000.6,N
1590082615.9,286046998.5,N
1590082635.7,286046998.5,N
1590082655.5,286046998.8,N
1590082675.4,286046999.3,N
1590082695.2,286046996.9,N
1590082715.1,286046998.6,N
1590082716.0,286046998.6,N
1590082735.8,286046999.1,N
1590082755.7,286046997.4,N
1590082775.5,286046997.2,N
1590082795.3,286046997.5,N
1590082815.2,286046997.1,N
1590082835.0,286046996.8,N
1590082835.9,286046996.8,N
1590082855.7,286046995.9,N
1590082875.6,286046993.6,N
1590082895.4,286046994.0,N
1590082915.3,286046996.0,N
1590082935.1,286046993.7,N
1590082955.8,286046994.8,N
1590082975.7,286046991.7,N
1590082995.5,286046992.2,N
1590083015.4,286046992.3,N
1590083035.2,286046991.9,N
1590083055.0,286046992.9,N
1590083055.9,286046992.9,N
1590083075.8,286046992.2,N
1590083095.6,286046993.2,N
1590083115.5,286046992.9,N
1590083135.3,286046990.5,Y
1590083155.1,286046997.4,P
1590083175.9,286046996.7,P
1590083195.7,286046997.3,P
1590083215.6,286046995.4,Y
1590083235.4,286046999.0,P
1590083255.2,286046998.7,N
1590083275.1,286046998.2,N
1590083276.0,286046998.2,N
1590083295.8,286046998.3,N
1590083315.7,286046998.4,N
1590083335.5,286046998.7,N
1590083355.4,286046998.3,N
1590083375.2,286047000.8,N
1590083395.0,286047000.2,N
1590083395.9,286047000.2,N
1590083415.8,286047000.8,N
1590083435.6,286047000.9,N
1590083455.4,286047000.8,N
1590083475.3,286047001.1,N
1590083495.1,286047000.5,N
1590083515.9,286046999.8,N
1590083535.7,286047003.1,N
1590083555.5,286047003.1,N
1590083575.4,286047001.3,N
1590083595.2,286047004.1,N
1590083615.1,286047005.9,Y
1590083616.0,286047005.9,P
1590083635.8,286047005.9,N
1590083655.6,286047006.0,N
1590083675.5,286047001.9,N
1590083695.3,286047001.3,N
1590083715.2,286047005.6,N
1590083735.9,286047005.9,N
1590083755.7,286047005.7,N
1590083775.6,286047004.5,N
1590083795.4,286047007.6,Y
1590083815.3,286047000.4,P
1590083835.1,286047001.1,N
1590083836.0,286047001.1,N
1590083855.8,286047002.7,N
1590083875.7,286047002.0,N
1590083895.5,286047001.2,N
1590083915.3,286047001.0,N
1590083935.2,286046998.4,N
1590083955.0,286046998.5,N
1590083955.9,286046998.5,N
1590083975.8,286047000.6,N
1590083995.6,286047000.1,N
